Regional Weather Roundup
Issued by NWS

Home | Current Version | Previous Version | Graphics & Text | Print | Product List | Glossary On
Versions: 1 2 3 4 5 6 7 8 9 10 11 12 13 14 15 16 17 18 19 20 21 22 23 24 25 26 27 28 29 30 31 32 33 34 35 36 37 38 39 40 41 42 43 44 45 46 47 48 49 50
000
ASUS45 KBOU 180207
RWRCO

WEATHER ROUNDUP FOR COLORADO
NATIONAL WEATHER SERVICE DENVER/BOULDER CO
800 PM MDT THU AUG 17 2017

NOTE: "FAIR" INDICATES FEW OR NO CLOUDS BELOW 12000 FEET WITH NO
SIGNIFICANT WEATHER AND/OR OBSTRUCTIONS TO VISIBILITY.

COZ001>005-013-030-031-180300-
...NORTHWEST COLORADO...

CITY           SKY/WX    TMP DP  RH WIND       PRES   REMARKS
CRAIG          FAIR      71  31  22 W7        30.19R
HAYDEN         FAIR      72  34  24 W7        30.23R
MEEKER         FAIR      75  29  18 W7        30.21R
RABBIT EARS PA MOCLDY    54  32  43 W7        30.52R
STEAMBOAT SPGS FAIR      70  36  28 CALM      30.24R
WALDEN         FAIR      63  32  31 SW9       30.35R
$$

COZ006>008-011-180300-
...WEST CENTRAL VALLEYS...

CITY           SKY/WX    TMP DP  RH WIND       PRES   REMARKS
GRAND JUNCTION FAIR      84  30  14 NW7       30.08S
MONTROSE       FAIR      77  45  32 SW3       30.18R
EAGLE          FAIR      74  35  24 SW9       30.25S
RIFLE          FAIR      80  33  18 SW8       30.15R
DELTA          FAIR      86  27  11 CALM      30.13R
NUCLA          FAIR      79  28  15 N5        30.22R
$$

COZ017>023-064>068-180300-
...SOUTHWEST COLORADO...

CITY           SKY/WX    TMP DP  RH WIND       PRES   REMARKS
DURANGO        FAIR      76  26  15 W8        30.24R
CORTEZ         FAIR      77  30  17 W5        30.19R
PAGOSA SPRINGS FAIR      69  29  22 CALM      30.34S
TELLURIDE      FAIR      64  31  29 SE3       30.46R
WOLF CREEK PAS CLOUDY    48  30  49 CALM      30.70S
$$

COZ009-010-012-014-032>034-037-058>063-180300-
...CENTRAL COLORADO...

CITY           SKY/WX    TMP DP  RH WIND       PRES   REMARKS
ASPEN          FAIR      60  43  53 S7        30.35S
BUENA VISTA    FAIR      63  33  32 NW9       30.36R
COPPER MTN     FAIR      52  32  46 W10G21    30.64S
BERTHOUD PASS  FAIR      43  37  81 MISG      30.63F
COTTONWOOD PAS FAIR      63  25  23 NW3       30.49S
GUNNISON       FAIR      66  37  34 N6        30.34R
KREMMLING      FAIR      68  39  34 NW3       30.30R
LEADVILLE      FAIR      51  36  56 N3        30.49F
MONARCH PASS   FAIR      52  28  40 NW9       30.76R
SALIDA         FAIR      70  35  27 NW13      30.39R
SUNLIGHT       FAIR      52  32  46 CALM      30.59R
WILKERSON PASS FAIR      52  28  40 NW9G18    30.61S
$$

COZ069>075-180300-
...SAN LUIS VALLEY/SANGRE DE CRISTO MOUNTAINS...

CITY           SKY/WX    TMP DP  RH WIND       PRES   REMARKS
ALAMOSA        MOCLDY    68  35  29 W9        30.32R
DEL NORTE      FAIR      65  35  32 W8        30.37R
LA VETA PASS   NOT AVBL
SAGUACHE       MOCLDY    63  41  45 SW3       30.36R
$$

COZ035-036-038>040-180300-
...NORTHERN COLORADO FRONT RANGE...

CITY           SKY/WX    TMP DP  RH WIND       PRES   REMARKS
DENVER INTL AP FAIR      74  39  28 S12       30.11S
DMNS CITY PARK   N/A     76  35  22 SW7       30.11R
AURORA         PTCLDY    69  45  41 S9        30.14S
FRONT RANGE AP FAIR      72  48  43 S7        30.14R
ERIE MUNI ARPT FAIR      76  38  25 SW5       30.13R
BOULDER MUN AP FAIR      79  36  21 SW6       30.09S
CENTENNIAL     FAIR      70  43  37 S7        30.16R
BROOMFIELD     PTCLDY    73  41  31 W8        30.13
FORT COLLINS   FAIR      77  47  34 SW3       30.09R
LONGMONT       NOT AVBL
$$

COZ041-046-047-076>085-087-088-180300-
...PIKES PEAK/PALMER DIVIDE AND SOUTHERN FOOTHILLS...

CITY           SKY/WX    TMP DP  RH WIND       PRES   REMARKS
COLO. SPRINGS  MOCLDY    71  44  37 N6        30.22S
A. F. ACADEMY  FAIR      65  46  49 N7        30.23F
SCHRIEVER AFB  FAIR      68  42  38 NW6       30.21F
CHEYENNE MTN   FAIR      68  40  35 W9        30.22S
ELLICOTT       FAIR     N/A N/A N/A E7        30.19F
FALCON         FAIR      64  41  42 CALM      30.26F
FORT CARSON    FAIR      66  51  57 NW8       30.18S
LIMON          FAIR      63  53  70 CALM      30.14R
MONUMENT HILL  FAIR      61  45  55 SW8       30.28R
CANON CITY     CLEAR     75  48  38 NE8       30.16S
WALSENBURG     FAIR      72  43  35 E8        30.20R
TRINIDAD       FAIR      75  46  35 W7        30.15R
$$

COZ042>045-048>051-090-091-180300-
...NORTHEAST COLORADO...

CITY           SKY/WX    TMP DP  RH WIND       PRES   REMARKS
GREELEY ARPT   FAIR      73  51  46 E7        30.07R
AKRON          FAIR      74  45  35 S7        30.05R
BURLINGTON     FAIR      71  52  50 NW7       30.03S
WRAY           NOT AVBL
YUMA           FAIR      68  45  42 S9        30.02R
STERLING       FAIR      68  55  64 W3        29.99R
HOLYOKE        FAIR      66  55  68 S9        29.99R
FORT MORGAN    FAIR      71  46  40 CALM      30.05R
$$

COZ086-089-092>099-180300-
...SOUTHEAST COLORADO...

CITY           SKY/WX    TMP DP  RH WIND       PRES   REMARKS
PUEBLO         FAIR      78  46  32 SE3       30.11R
LA JUNTA       FAIR      74  46  36 N9        30.06R
LAMAR          FAIR      74  55  51 N3        29.99S
SPRINGFIELD      N/A     63  60  90 S8        30.07R
$$



USA.gov is the U.S. government's official web portal to all federal, state and local government web resources and services.